Time,TemperatureF,DewpointF,PressureIn,WindDirection,WindDirectionDegrees,WindSpeedMPH,WindSpeedGustMPH,Humidity,HourlyPrecipIn,Conditions,Clouds,dailyrainin,SoftwareType,DateUTC
2013-08-07 00:06:00,60.1,54.0,29.93,North,0,0.0,-999.0,80,0.00,,,0.00,open2300 v1.10,2013-08-07 07:06:00,
2013-08-07 00:21:00,59.7,53.9,29.93,North,0,0.0,-999.0,81,0.00,,,0.00,open2300 v1.10,2013-08-07 07:21:00,
2013-08-07 00:36:00,59.5,53.7,29.93,North,0,0.0,-999.0,81,0.00,,,0.00,open2300 v1.10,2013-08-07 07:36:00,
2013-08-07 00:51:00,59.5,53.7,29.93,North,0,0.0,-999.0,81,0.00,,,0.00,open2300 v1.10,2013-08-07 07:51:00,
2013-08-07 01:07:00,59.5,53.7,29.93,North,0,0.0,-999.0,81,0.00,,,0.00,open2300 v1.10,2013-08-07 08:07:00,
2013-08-07 01:21:00,59.5,54.1,29.93,North,0,0.0,-999.0,82,0.00,,,0.00,open2300 v1.10,2013-08-07 08:21:00,
2013-08-07 01:36:00,59.0,53.5,29.93,North,0,0.0,-999.0,82,0.00,,,0.00,open2300 v1.10,2013-08-07 08:36:00,
2013-08-07 01:51:00,58.8,53.3,29.93,North,0,0.0,-999.0,82,0.00,,,0.00,open2300 v1.10,2013-08-07 08:51:00,
2013-08-07 02:07:00,58.8,53.3,29.93,North,0,0.0,-999.0,82,0.00,,,0.00,open2300 v1.10,2013-08-07 09:07:00,
2013-08-07 02:21:00,58.8,53.3,29.93,North,0,0.0,-999.0,82,0.00,,,0.00,open2300 v1.10,2013-08-07 09:21:00,
2013-08-07 02:36:00,58.6,53.2,29.94,North,0,0.0,-999.0,82,0.00,,,0.00,open2300 v1.10,2013-08-07 09:36:00,
2013-08-07 02:51:00,58.3,52.8,29.93,North,0,0.0,-999.0,82,0.00,,,0.00,open2300 v1.10,2013-08-07 09:51:00,
2013-08-07 03:07:00,58.5,53.0,29.94,North,0,0.0,-999.0,82,0.00,,,0.00,open2300 v1.10,2013-08-07 10:07:00,
2013-08-07 03:21:00,58.5,53.0,29.94,North,0,0.0,-999.0,82,0.00,,,0.00,open2300 v1.10,2013-08-07 10:21:00,
2013-08-07 03:36:00,58.5,53.0,29.93,North,0,0.0,-999.0,82,0.00,,,0.00,open2300 v1.10,2013-08-07 10:36:00,
2013-08-07 03:51:00,58.5,53.0,29.93,North,0,0.0,-999.0,82,0.00,,,0.00,open2300 v1.10,2013-08-07 10:51:00,
2013-08-07 04:07:00,58.5,53.0,29.93,North,0,0.0,-999.0,82,0.00,,,0.00,open2300 v1.10,2013-08-07 11:07:00,
2013-08-07 04:21:00,58.6,52.8,29.93,North,0,0.0,-999.0,81,0.00,,,0.00,open2300 v1.10,2013-08-07 11:21:00,
2013-08-07 04:36:00,58.6,52.8,29.93,North,0,0.0,-999.0,81,0.00,,,0.00,open2300 v1.10,2013-08-07 11:36:00,
2013-08-07 04:51:00,58.8,53.0,29.93,North,0,0.0,-999.0,81,0.00,,,0.00,open2300 v1.10,2013-08-07 11:51:00,
2013-08-07 05:07:00,58.8,53.0,29.93,North,0,0.0,-999.0,81,0.00,,,0.00,open2300 v1.10,2013-08-07 12:07:00,
2013-08-07 05:21:00,58.8,53.3,29.93,North,0,0.0,-999.0,82,0.00,,,0.00,open2300 v1.10,2013-08-07 12:21:00,
2013-08-07 05:36:00,58.8,53.0,29.93,North,0,0.0,-999.0,81,0.00,,,0.00,open2300 v1.10,2013-08-07 12:36:00,
2013-08-07 05:51:00,58.8,53.3,29.93,North,0,0.0,-999.0,82,0.00,,,0.00,open2300 v1.10,2013-08-07 12:51:00,
2013-08-07 06:07:00,58.8,53.3,29.92,North,0,0.0,-999.0,82,0.00,,,0.00,open2300 v1.10,2013-08-07 13:07:00,
2013-08-07 06:21:00,58.8,53.0,29.93,North,0,0.0,-999.0,81,0.00,,,0.00,open2300 v1.10,2013-08-07 13:21:00,
2013-08-07 06:36:00,58.8,53.0,29.93,North,0,0.0,-999.0,81,0.00,,,0.00,open2300 v1.10,2013-08-07 13:36:00,
2013-08-07 06:51:00,58.8,53.0,29.93,North,0,0.0,-999.0,81,0.00,,,0.00,open2300 v1.10,2013-08-07 13:51:00,
2013-08-07 07:07:00,58.8,52.7,29.94,North,0,0.0,-999.0,80,0.00,,,0.00,open2300 v1.10,2013-08-07 14:07:00,
2013-08-07 07:21:00,59.4,53.2,29.94,North,0,0.0,-999.0,80,0.00,,,0.00,open2300 v1.10,2013-08-07 14:21:00,
2013-08-07 07:36:00,59.5,53.4,29.93,North,0,0.0,-999.0,80,0.00,,,0.00,open2300 v1.10,2013-08-07 14:36:00,
2013-08-07 07:51:00,59.5,53.4,29.94,North,0,0.0,-999.0,80,0.00,,,0.00,open2300 v1.10,2013-08-07 14:51:00,
2013-08-07 08:06:00,59.7,53.6,29.94,North,0,0.0,-999.0,80,0.00,,,0.00,open2300 v1.10,2013-08-07 15:06:00,
2013-08-07 08:21:00,60.1,54.0,29.95,North,0,0.0,-999.0,80,0.00,,,0.00,open2300 v1.10,2013-08-07 15:21:00,
2013-08-07 08:36:00,60.4,54.3,29.96,North,0,0.0,-999.0,80,0.00,,,0.00,open2300 v1.10,2013-08-07 15:36:00,
2013-08-07 08:51:00,61.0,54.5,29.96,North,0,0.0,-999.0,79,0.00,,,0.00,open2300 v1.10,2013-08-07 15:51:00,
2013-08-07 09:06:00,61.3,54.8,29.96,North,0,0.0,-999.0,79,0.00,,,0.00,open2300 v1.10,2013-08-07 16:06:00,
2013-08-07 09:21:00,61.7,54.8,29.96,North,0,0.0,-999.0,78,0.00,,,0.00,open2300 v1.10,2013-08-07 16:21:00,
2013-08-07 09:36:00,61.9,54.6,29.96,North,0,0.0,-999.0,77,0.00,,,0.00,open2300 v1.10,2013-08-07 16:36:00,
2013-08-07 09:51:00,62.2,54.5,29.96,North,0,0.0,-999.0,76,0.00,,,0.00,open2300 v1.10,2013-08-07 16:51:00,
2013-08-07 10:06:00,62.4,54.7,29.97,North,0,0.0,-999.0,76,0.00,,,0.00,open2300 v1.10,2013-08-07 17:06:00,
2013-08-07 10:21:00,62.4,54.7,29.98,North,0,0.0,-999.0,76,0.00,,,0.00,open2300 v1.10,2013-08-07 17:21:00,
2013-08-07 10:36:00,63.1,55.4,29.98,North,0,0.0,-999.0,76,0.00,,,0.00,open2300 v1.10,2013-08-07 17:36:00,
2013-08-07 10:51:00,64.0,55.9,29.98,North,0,0.0,-999.0,75,0.00,,,0.00,open2300 v1.10,2013-08-07 17:51:00,
2013-08-07 11:06:00,64.6,55.7,29.99,North,0,0.0,-999.0,73,0.00,,,0.00,open2300 v1.10,2013-08-07 18:06:00,
2013-08-07 11:21:00,64.9,56.1,29.98,North,0,0.0,-999.0,73,0.00,,,0.00,open2300 v1.10,2013-08-07 18:21:00,
2013-08-07 11:36:00,65.1,55.9,29.99,North,0,0.0,-999.0,72,0.00,,,0.00,open2300 v1.10,2013-08-07 18:36:00,
2013-08-07 11:51:00,65.1,55.5,29.99,North,0,0.0,-999.0,71,0.00,,,0.00,open2300 v1.10,2013-08-07 18:51:00,
2013-08-07 12:06:00,65.7,56.0,29.98,North,0,0.0,-999.0,71,0.00,,,0.00,open2300 v1.10,2013-08-07 19:06:00,
2013-08-07 12:21:00,66.0,56.0,29.98,North,0,0.0,-999.0,70,0.00,,,0.00,open2300 v1.10,2013-08-07 19:21:00,
2013-08-07 12:36:00,66.2,55.7,29.98,North,0,0.0,-999.0,69,0.00,,,0.00,open2300 v1.10,2013-08-07 19:36:00,
2013-08-07 12:51:00,66.4,55.9,29.98,North,0,0.0,-999.0,69,0.00,,,0.00,open2300 v1.10,2013-08-07 19:51:00,
2013-08-07 13:06:00,66.4,55.5,29.98,North,0,0.0,-999.0,68,0.00,,,0.00,open2300 v1.10,2013-08-07 20:06:00,
2013-08-07 13:21:00,66.7,55.8,29.98,North,0,0.0,-999.0,68,0.00,,,0.00,open2300 v1.10,2013-08-07 20:21:00,
2013-08-07 13:36:00,67.3,56.3,29.97,North,0,0.0,-999.0,68,0.00,,,0.00,open2300 v1.10,2013-08-07 20:36:00,
2013-08-07 13:51:00,67.5,56.1,29.97,North,0,0.0,-999.0,67,0.00,,,0.00,open2300 v1.10,2013-08-07 20:51:00,
2013-08-07 14:06:00,67.6,55.8,29.97,North,0,0.0,-999.0,66,0.00,,,0.00,open2300 v1.10,2013-08-07 21:06:00,
2013-08-07 14:21:00,67.5,55.7,29.97,North,0,0.0,-999.0,66,0.00,,,0.00,open2300 v1.10,2013-08-07 21:21:00,
2013-08-07 14:36:00,67.1,55.3,29.97,North,0,0.0,-999.0,66,0.00,,,0.00,open2300 v1.10,2013-08-07 21:36:00,
2013-08-07 14:51:00,66.7,55.4,29.96,North,0,0.0,-999.0,67,0.00,,,0.00,open2300 v1.10,2013-08-07 21:51:00,
2013-08-07 15:06:00,66.7,55.4,29.96,North,0,0.0,-999.0,67,0.00,,,0.00,open2300 v1.10,2013-08-07 22:06:00,
2013-08-07 15:21:00,67.6,56.3,29.96,North,0,0.0,-999.0,67,0.00,,,0.00,open2300 v1.10,2013-08-07 22:21:00,
2013-08-07 15:36:00,68.2,56.8,29.96,North,0,0.0,-999.0,67,0.00,,,0.00,open2300 v1.10,2013-08-07 22:36:00,
2013-08-07 15:51:00,68.2,56.3,29.96,North,0,0.0,-999.0,66,0.00,,,0.00,open2300 v1.10,2013-08-07 22:51:00,
2013-08-07 16:06:00,68.5,56.7,29.95,North,0,0.0,-999.0,66,0.00,,,0.00,open2300 v1.10,2013-08-07 23:06:00,
2013-08-07 16:21:00,68.9,56.6,29.95,North,0,0.0,-999.0,65,0.00,,,0.00,open2300 v1.10,2013-08-07 23:21:00,
2013-08-07 16:36:00,68.9,56.6,29.94,North,0,0.0,-999.0,65,0.00,,,0.00,open2300 v1.10,2013-08-07 23:36:00,
2013-08-07 16:51:00,68.5,56.3,29.94,North,0,0.0,-999.0,65,0.00,,,0.00,open2300 v1.10,2013-08-07 23:51:00,
2013-08-07 17:06:00,68.2,56.3,29.94,North,0,0.0,-999.0,66,0.00,,,0.00,open2300 v1.10,2013-08-08 00:06:00,
2013-08-07 17:21:00,68.2,55.9,29.94,North,0,0.0,-999.0,65,0.00,,,0.00,open2300 v1.10,2013-08-08 00:21:00,
2013-08-07 17:36:00,68.2,55.9,29.94,North,0,0.0,-999.0,65,0.00,,,0.00,open2300 v1.10,2013-08-08 00:36:00,
2013-08-07 17:51:00,67.8,56.0,29.94,North,0,0.0,-999.0,66,0.00,,,0.00,open2300 v1.10,2013-08-08 00:51:00,
2013-08-07 18:06:00,67.3,55.5,29.93,North,0,0.0,-999.0,66,0.00,,,0.00,open2300 v1.10,2013-08-08 01:06:00,
2013-08-07 18:21:00,66.4,55.0,29.93,North,0,0.0,-999.0,67,0.00,,,0.00,open2300 v1.10,2013-08-08 01:21:00,
2013-08-07 18:36:00,65.7,55.2,29.93,North,0,0.0,-999.0,69,0.00,,,0.00,open2300 v1.10,2013-08-08 01:36:00,
2013-08-07 18:51:00,65.1,55.2,29.93,North,0,0.0,-999.0,70,0.00,,,0.00,open2300 v1.10,2013-08-08 01:51:00,
2013-08-07 19:06:00,64.6,55.0,29.92,North,0,0.0,-999.0,71,0.00,,,0.00,open2300 v1.10,2013-08-08 02:06:00,
2013-08-07 19:21:00,64.6,55.4,29.93,North,0,0.0,-999.0,72,0.00,,,0.00,open2300 v1.10,2013-08-08 02:21:00,
2013-08-07 19:36:00,64.8,55.5,29.92,North,0,0.0,-999.0,72,0.00,,,0.00,open2300 v1.10,2013-08-08 02:36:00,
2013-08-07 19:51:00,65.1,55.9,29.92,North,0,0.0,-999.0,72,0.00,,,0.00,open2300 v1.10,2013-08-08 02:51:00,
2013-08-07 20:06:00,64.6,55.4,29.92,North,0,0.0,-999.0,72,0.00,,,0.00,open2300 v1.10,2013-08-08 03:06:00,
2013-08-07 20:21:00,63.7,54.9,29.92,North,0,0.0,-999.0,73,0.00,,,0.00,open2300 v1.10,2013-08-08 03:21:00,
2013-08-07 20:36:00,63.0,54.5,29.92,North,0,0.0,-999.0,74,0.00,,,0.00,open2300 v1.10,2013-08-08 03:36:00,
2013-08-07 20:51:00,62.6,54.5,29.92,North,0,0.0,-999.0,75,0.00,,,0.00,open2300 v1.10,2013-08-08 03:51:00,
2013-08-07 21:06:00,62.2,54.5,29.92,North,0,0.0,-999.0,76,0.00,,,0.00,open2300 v1.10,2013-08-08 04:06:00,
2013-08-07 21:21:00,61.9,54.2,29.93,North,0,0.0,-999.0,76,0.00,,,0.00,open2300 v1.10,2013-08-08 04:21:00,
2013-08-07 21:36:00,61.9,54.6,29.93,North,0,0.0,-999.0,77,0.00,,,0.00,open2300 v1.10,2013-08-08 04:36:00,
2013-08-07 21:51:00,61.7,54.4,29.93,North,0,0.0,-999.0,77,0.00,,,0.00,open2300 v1.10,2013-08-08 04:51:00,
2013-08-07 22:06:00,61.5,54.2,29.92,North,0,0.0,-999.0,77,0.00,,,0.00,open2300 v1.10,2013-08-08 05:06:00,
2013-08-07 22:21:00,61.5,54.6,29.92,North,0,0.0,-999.0,78,0.00,,,0.00,open2300 v1.10,2013-08-08 05:21:00,
2013-08-07 22:36:00,61.3,54.8,29.92,North,0,0.0,-999.0,79,0.00,,,0.00,open2300 v1.10,2013-08-08 05:36:00,
2013-08-07 22:51:00,61.3,54.8,29.92,North,0,0.0,-999.0,79,0.00,,,0.00,open2300 v1.10,2013-08-08 05:51:00,
2013-08-07 23:06:00,61.3,54.8,29.92,North,0,0.0,-999.0,79,0.00,,,0.00,open2300 v1.10,2013-08-08 06:06:00,
2013-08-07 23:21:00,61.2,54.6,29.92,North,0,0.0,-999.0,79,0.00,,,0.00,open2300 v1.10,2013-08-08 06:21:00,
2013-08-07 23:36:00,61.0,54.5,29.92,North,0,0.0,-999.0,79,0.00,,,0.00,open2300 v1.10,2013-08-08 06:36:00,
2013-08-07 23:51:00,61.0,54.5,29.91,North,0,0.0,-999.0,79,0.00,,,0.00,open2300 v1.10,2013-08-08 06:51:00,